Location: Sungai Jaoh
(2.9167°N, 113.9167°E)
Time: 15:35:28
(UTC+00:00)

Cosmos 1743 Rocket - Pass Details

Date: 30 November 2020
Orbit: 603 x 633 km, 82.6° (Epoch: 26 January)

Event Time Altitude Azimuth Distance (km) Brightness Sun altitude
Rises 21:10:02 0° 181° (S) 2,882 7.3 -15.8°
Reaches altitude 10° 21:12:15 10° 179° (S) 1,980 6.4 -15.3°
Maximum altitude 21:16:38 76° 94° (E) 642 3.7 -14.2°
Drops below altitude 10° 21:21:03 10° 8° (N) 1,991 6.0 -13.2°
Sets 21:23:17 0° 7° (N) 2,900 6.8 -12.7°
